Find Local Weather

World > North America > United States > Minnesota

Rochester, Minnesota Regional Weather

Lat: 44.01N, Lon: 92.48W
Wx Zone: MNZ087
Warning FLW WEATHER ALERT - (More Info. Click Here) Warning
Feedback
Expires:201807210700;;807291
ASUS43 KMPX 210601
RWRMN 
WEATHER ROUNDUP FOR MINNESOTA
NATIONAL WEATHER SERVICE TWIN CITIES/CHANHASSEN MN
100 AM CDT SAT JUL 21 2018


NOTE: "FAIR" INDICATES FEW OR NO CLOUDS BELOW 12,000 FEET WITH NO
SIGNIFICANT WEATHER AND/OR OBSTRUCTIONS TO VISIBILITY. N/A MEANS
CURRENT SKY AND/OR WEATHER CONDITIONS ARE NOT AVAILABLE.


MNZ078>079-086>088-094>096-210700-
   Southeast Minnesota   
  
CITY           SKY/WX    TMP DP  RH WIND       PRES   REMARKS
ROCHESTER      MOCLDY    64  63  96 N13G21    29.91S                  
6HR MIN TEMP:  63; 6HR MAX TEMP:  69; 6HR PCP: TRACE;                

RED WING       FAIR      66  64  94 NW3       29.90S                  
STANTON        MOCLDY    65  63  93 N7        29.92S                  
DODGE CENTER   FAIR      63  61  94 NW10      29.93R                  
WINONA         CLOUDY    70  63  78 N9        29.86S                  
AUSTIN         FAIR      63  61  94 N10       29.92R                  
PRESTON        MOCLDY    65  62  90 N13       29.89S                  
$$
ABBREVIATIONS USED IN REMARKS
   TC - TEMPERATURES IN CELSIUS
  WCI - WIND CHILL INDEX
   HX - HEAT INDEX
  VSB - VISIBILITY 
$$
  

SKY/WX - Weather  TMP - Temperature  DP - Dewpoint  RH - Relative Humidity
WIND - Wind Direction/Speed PRES - Barometric Pressure